• în Republica Moldova
  • Lista ţărilor
  • Pe 7 zile
  • Temperatura apei
  • Hartă satelitară
  • Meteo pe hartă
  • Widget-uri
  • user-avatar
    Intrare

    Meteo pe oră la Lezhe

    Astăzi, 18 Noiembrie, Sâmbătă

    Timp Temperatura Precipitaţii Vânt Presiune Umiditate
    00:00 +10°C° 0,1 mm 3 m/s 735 mmHg 84%
    01:00 +9°C° 0 mm 3 m/s 735 mmHg 85%
    02:00 +9°C° 0,1 mm 3 m/s 735 mmHg 85%
    03:00 +9°C° 0,1 mm 3 m/s 735 mmHg 85%
    04:00 +9°C° 0,1 mm 3 m/s 734 mmHg 85%
    05:00 +9°C° 0 mm 3 m/s 734 mmHg 85%
    06:00 +9°C° 0 mm 3 m/s 734 mmHg 85%
    07:00 +9°C° 0 mm 3 m/s 735 mmHg 85%
    08:00 +10°C° 0 mm 3 m/s 735 mmHg 80%
    09:00 +11°C° 0 mm 3 m/s 735 mmHg 75%
    10:00 +13°C° 0 mm 3 m/s 735 mmHg 71%
    11:00 +13°C° 0 mm 3 m/s 734 mmHg 68%
    12:00 +14°C° 0 mm 3 m/s 734 mmHg 66%
    13:00 +14°C° 0 mm 3 m/s 734 mmHg 64%
    14:00 +14°C° 0 mm 3 m/s 734 mmHg 67%
    15:00 +13°C° 0 mm 3 m/s 734 mmHg 71%
    16:00 +12°C° 0 mm 3 m/s 734 mmHg 74%
    17:00 +11°C° 0 mm 3 m/s 734 mmHg 77%
    18:00 +11°C° 0 mm 3 m/s 734 mmHg 79%
    19:00 +10°C° 0 mm 3 m/s 734 mmHg 81%
    20:00 +10°C° 0 mm 2 m/s 735 mmHg 82%
    21:00 +9°C° 0 mm 2 m/s 735 mmHg 82%
    22:00 +9°C° 0 mm 2 m/s 735 mmHg 83%
    23:00 +9°C° 0 mm 2 m/s 735 mmHg 83%

    Mâine, 19 Noiembrie, Duminică

    Timp Temperatura Precipitaţii Vânt Presiune Umiditate
    00:00 +9°C° 0 mm 2 m/s 735 mmHg 84%
    01:00 +9°C° 0 mm 2 m/s 735 mmHg 84%
    02:00 +8°C° 0 mm 2 m/s 735 mmHg 84%
    03:00 +8°C° 0 mm 2 m/s 734 mmHg 85%
    04:00 +8°C° 0 mm 2 m/s 734 mmHg 85%
    05:00 +8°C° 0 mm 2 m/s 734 mmHg 85%
    06:00 +8°C° 0 mm 2 m/s 735 mmHg 84%
    07:00 +8°C° 0 mm 2 m/s 735 mmHg 84%
    08:00 +9°C° 0 mm 2 m/s 735 mmHg 79%
    09:00 +10°C° 0 mm 2 m/s 735 mmHg 74%
    10:00 +13°C° 0 mm 2 m/s 735 mmHg 68%
    11:00 +13°C° 0 mm 2 m/s 735 mmHg 66%
    12:00 +14°C° 0 mm 1 m/s 734 mmHg 64%
    13:00 +14°C° 0 mm 1 m/s 734 mmHg 62%
    14:00 +13°C° 0 mm 1 m/s 734 mmHg 65%
    15:00 +13°C° 0 mm 2 m/s 734 mmHg 69%
    16:00 +12°C° 0 mm 2 m/s 734 mmHg 72%
    17:00 +12°C° 0 mm 2 m/s 734 mmHg 75%
    18:00 +10°C° 0 mm 2 m/s 734 mmHg 78%
    19:00 +10°C° 0 mm 2 m/s 734 mmHg 81%
    20:00 +9°C° 0,2 mm 2 m/s 734 mmHg 83%
    21:00 +9°C° 0,2 mm 2 m/s 735 mmHg 86%
    22:00 +9°C° 0,2 mm 3 m/s 735 mmHg 89%
    23:00 +9°C° 0,3 mm 3 m/s 735 mmHg 90%

    Poimâine, 20 Noiembrie, Luni

    Timp Temperatura Precipitaţii Vânt Presiune Umiditate
    00:00 +8°C° 0,3 mm 3 m/s 735 mmHg 91%
    01:00 +8°C° 0,3 mm 3 m/s 735 mmHg 91%
    02:00 +8°C° 0,3 mm 3 m/s 736 mmHg 91%
    03:00 +7°C° 0,3 mm 3 m/s 736 mmHg 90%
    04:00 +7°C° 0,3 mm 3 m/s 736 mmHg 89%
    05:00 +5°C° 0,1 mm 3 m/s 737 mmHg 88%
    06:00 +5°C° 0,1 mm 3 m/s 737 mmHg 87%
    07:00 +4°C° 0,1 mm 3 m/s 738 mmHg 86%
    08:00 +5°C° 0 mm 3 m/s 738 mmHg 78%
    09:00 +7°C° 0 mm 3 m/s 739 mmHg 71%
    10:00 +7°C° 0 mm 4 m/s 739 mmHg 63%
    11:00 +8°C° 0 mm 3 m/s 739 mmHg 59%
    12:00 +9°C° 0 mm 3 m/s 739 mmHg 55%
    13:00 +9°C° 0 mm 3 m/s 739 mmHg 51%
    14:00 +8°C° 0 mm 3 m/s 739 mmHg 53%
    15:00 +7°C° 0 mm 3 m/s 740 mmHg 56%
    16:00 +5°C° 0 mm 3 m/s 740 mmHg 59%
    17:00 +5°C° 0 mm 3 m/s 740 mmHg 60%
    18:00 +4°C° 0 mm 3 m/s 741 mmHg 60%
    19:00 +4°C° 0 mm 2 m/s 741 mmHg 61%
    20:00 +4°C° 0 mm 2 m/s 742 mmHg 60%
    21:00 +4°C° 0 mm 2 m/s 742 mmHg 59%
    22:00 +4°C° 0 mm 2 m/s 742 mmHg 58%
    23:00 +4°C° 0 mm 2 m/s 742 mmHg 56%

    21 Noiembrie, Marţi

    Timp Temperatura Precipitaţii Vânt Presiune Umiditate
    00:00 +4°C° 0 mm 2 m/s 742 mmHg 55%
    01:00 +4°C° 0 mm 2 m/s 742 mmHg 53%
    02:00 +4°C° 0 mm 2 m/s 742 mmHg 53%
    03:00 +4°C° 0 mm 2 m/s 741 mmHg 52%
    04:00 +4°C° 0 mm 2 m/s 741 mmHg 51%
    05:00 +4°C° 0 mm 2 m/s 741 mmHg 51%
    06:00 +4°C° 0 mm 2 m/s 741 mmHg 51%
    07:00 +4°C° 0 mm 2 m/s 741 mmHg 51%
    08:00 +7°C° 0 mm 1 m/s 741 mmHg 49%
    09:00 +9°C° 0 mm 1 m/s 741 mmHg 47%
    10:00 +10°C° 0 mm 1 m/s 741 mmHg 46%
    11:00 +10°C° 0 mm 2 m/s 741 mmHg 47%
    12:00 +10°C° 0 mm 2 m/s 740 mmHg 48%
    13:00 +12°C° 0 mm 2 m/s 740 mmHg 49%
    14:00 +10°C° 0 mm 2 m/s 740 mmHg 54%
    15:00 +10°C° 0 mm 1 m/s 740 mmHg 60%
    16:00 +9°C° 0 mm 1 m/s 740 mmHg 65%
    17:00 +8°C° 0 mm 1 m/s 741 mmHg 67%
    18:00 +7°C° 0 mm 1 m/s 741 mmHg 68%
    19:00 +7°C° 0 mm 1 m/s 741 mmHg 70%
    20:00 +7°C° 0 mm 1 m/s 741 mmHg 71%
    21:00 +7°C° 0 mm 1 m/s 741 mmHg 72%
    22:00 +7°C° 0 mm 1 m/s 741 mmHg 72%
    23:00 +7°C° 0 mm 1 m/s 741 mmHg 73%

    22 Noiembrie, Miercuri

    Timp Temperatura Precipitaţii Vânt Presiune Umiditate
    00:00 +7°C° 0 mm 1 m/s 742 mmHg 74%
    01:00 +7°C° 0 mm 1 m/s 742 mmHg 74%
    02:00 +7°C° 0 mm 1 m/s 741 mmHg 75%
    03:00 +7°C° 0 mm 1 m/s 741 mmHg 75%
    04:00 +7°C° 0 mm 1 m/s 741 mmHg 76%
    05:00 +7°C° 0 mm 1 m/s 741 mmHg 76%
    06:00 +7°C° 0 mm 1 m/s 741 mmHg 75%
    07:00 +7°C° 0 mm 1 m/s 741 mmHg 75%
    08:00 +9°C° 0 mm 1 m/s 742 mmHg 70%
    09:00 +11°C° 0 mm 1 m/s 742 mmHg 64%
    10:00 +12°C° 0 mm 0 m/s 742 mmHg 58%
    11:00 +13°C° 0 mm 1 m/s 742 mmHg 57%
    12:00 +14°C° 0 mm 1 m/s 741 mmHg 56%
    13:00 +15°C° 0 mm 1 m/s 741 mmHg 56%
    14:00 +14°C° 0 mm 1 m/s 741 mmHg 61%
    15:00 +12°C° 0 mm 1 m/s 741 mmHg 67%
    16:00 +11°C° 0 mm 1 m/s 741 mmHg 73%
    17:00 +11°C° 0 mm 1 m/s 742 mmHg 73%
    18:00 +10°C° 0 mm 1 m/s 742 mmHg 74%
    19:00 +10°C° 0 mm 1 m/s 742 mmHg 74%
    20:00 +10°C° 0 mm 1 m/s 742 mmHg 73%
    21:00 +10°C° 0 mm 1 m/s 742 mmHg 72%
    22:00 +10°C° 0 mm 1 m/s 743 mmHg 71%
    23:00 +10°C° 0 mm 1 m/s 743 mmHg 70%

    23 Noiembrie, Joi

    Timp Temperatura Precipitaţii Vânt Presiune Umiditate
    00:00 +9°C° 0 mm 1 m/s 743 mmHg 70%
    01:00 +9°C° 0 mm 1 m/s 743 mmHg 69%
    02:00 +9°C° 0 mm 1 m/s 742 mmHg 68%
    03:00 +9°C° 0 mm 1 m/s 742 mmHg 68%
    04:00 +9°C° 0 mm 1 m/s 742 mmHg 68%
    05:00 +9°C° 0 mm 1 m/s 743 mmHg 67%
    06:00 +9°C° 0 mm 1 m/s 743 mmHg 67%
    07:00 +9°C° 0 mm 1 m/s 743 mmHg 67%
    08:00 +11°C° 0 mm 1 m/s 743 mmHg 63%
    09:00 +13°C° 0 mm 1 m/s 743 mmHg 58%
    10:00 +14°C° 0 mm 0 m/s 743 mmHg 54%
    11:00 +16°C° 0 mm 1 m/s 743 mmHg 53%
    12:00 +16°C° 0 mm 1 m/s 743 mmHg 53%
    13:00 +18°C° 0 mm 1 m/s 743 mmHg 52%
    14:00 +15°C° 0 mm 1 m/s 743 mmHg 58%
    15:00 +14°C° 0 mm 1 m/s 743 mmHg 64%
    16:00 +13°C° 0 mm 1 m/s 743 mmHg 70%
    17:00 +12°C° 0 mm 1 m/s 743 mmHg 71%
    18:00 +11°C° 0 mm 1 m/s 743 mmHg 73%
    19:00 +11°C° 0 mm 1 m/s 743 mmHg 74%
    20:00 +10°C° 0 mm 1 m/s 744 mmHg 73%
    21:00 +10°C° 0 mm 1 m/s 744 mmHg 71%
    22:00 +10°C° 0 mm 1 m/s 744 mmHg 69%
    23:00 +10°C° 0 mm 1 m/s 744 mmHg 67%
    Arată mai mult